Галаасия

Узбекистан     39°51′29″N   64°26′50″E
темп.,
°C
ветер,
м/с
пор.,
м/с
влажн.,
%
обл.,
%
осадки,
мм/ч
давл.,
гПа
погр.,
м
1 марта, пн
пн123:00+9всв342477 0.0 101933
02:00+9юв45280 0.0 101745
05:00+7юв56380 0.0 101797
08:00+6юв59460 0.0 1018188
11:00+14ююз812340 0.0 1018753
14:00+17юз79200 0.0 1017840
17:00+18зюз45160 0.0 10171008
20:00+14сз342734 0.0 101969
2 марта, вт
вт223:00+12ссз343067 0.0 102063
02:00+10ссв233422 0.0 102122
05:00+10с553259 0.0 102167
08:00+9с343581 0.0 102269
11:00+13с452662 0.0 1022449
14:00+17с442121 0.0 10211181
17:00+16с552221 0.0 10211176
20:00+13ссв58290 0.0 1023374
3 марта, ср
ср323:00+10ссв693932 0.0 1024340
02:00+9ссв5846100 0.0 1023344
05:00+7ссв585696 0.0 1023249
08:00+6с475847 0.0 1023172
11:00+12с443935 0.0 1022406
14:00+15сз22303 0.0 10211258
17:00+16сз32281 0.0 10191627
20:00+13с45350 0.0 1019256
4 марта, чт
чт423:00+11св34410 0.0 1019103
02:00+10всв23460 0.0 101832
05:00+10юв33430 0.0 101827
08:00+10юв44410 0.0 101867
11:00+15ю45330 0.4 1017452
14:00+19юз793236 1.0 10161674
17:00+19зсз993134 1.1 10181779
20:00+12сз8115567 0.0 10221095
5 марта, пт
пт523:00+9сз796667 0.2 10261096
02:00+9с464380 0.2 1028642
05:00+7с354940 0.2 1029142
08:00+5св57640 0.0 1030238
11:00+10всв45310 0.0 10271019
14:00+12св23200 0.0 1023950
17:00+15св671817 0.0 1019638
20:00+13св7937100 0.0 1017400